Weather reports worldwide

Advertisment
Annecy-Meythet, France (7490): temperature & dewpoint: 16.06.2018 15:00:00 - 22.06.2018 15:00:00 (CEST)Annecy-Meythet, France (7490): temperature 5cm: 16.06.2018 15:00:00 - 22.06.2018 15:00:00 (CEST)Annecy-Meythet, France (7490): temperature -20cm & temperature -100cm: 16.06.2018 15:00:00 - 22.06.2018 15:00:00 (CEST)Annecy-Meythet, France (7490): wind speed & gusts: 16.06.2018 15:00:00 - 22.06.2018 15:00:00 (CEST)Annecy-Meythet, France (7490): wind direction: 16.06.2018 15:00:00 - 22.06.2018 15:00:00 (CEST)Annecy-Meythet, France (7490): reduced air pressure: 16.06.2018 15:00:00 - 22.06.2018 15:00:00 (CEST)Annecy-Meythet, France (7490): visibility: 16.06.2018 15:00:00 - 22.06.2018 15:00:00 (CEST)Annecy-Meythet, France (7490): precipitation: 16.06.2018 15:00:00 - 22.06.2018 15:00:00 (CEST)
Date & Time tt [°C] td [°C] tt 5cm [°C] tt -20cm [°C] tt -100cm [°C] ff [km/h] ff [kn] fx [km/h] fx [kn] dd ppp [hPa] vv [km] rr [mm]
22.06.2018 15:00:00 21,8 5,2 29,7 22,4 16,8 26 14 48 26 NNE 1019,3 20 0,0
22.06.2018 14:00:00 21,3 8,2 29,3 21,9 16,8 29 16 48 26 NNE 1019,3 33 0,0
22.06.2018 13:00:00 21,3 8,2 27,1 21,5 16,8 24 13 39 21 NNE 1019,3 20 0,0
22.06.2018 12:00:00 20,4 9,6 25,2 21,2 16,8 21 12 41 22 NNE 1019,8 20 0,0
22.06.2018 11:00:00 19,6 8,9 25,4 21,0 16,7 24 13 40 22 N 1020,0 46 0,0
22.06.2018 10:00:00 19,1 9,6 21,8 21,0 16,8 19 10 31 17 NNE 1019,9 58 0,0
22.06.2018 09:00:00 18,5 9,3 21,4 21,1 16,7 9 5 19 11 NW 1019,4 60 0,0
22.06.2018 08:00:00 17,9 9,8 18,2 21,2 16,7 6 3 16 9 NNW 1019,2 57 0,0
22.06.2018 07:00:00 17,0 11,3 15,3 21,5 16,7 5 3 21 12 WNW 1019,1 50 0,0
22.06.2018 06:00:00 16,6 11,9 15,4 21,7 16,7 5 3 22 12 W 1019,1 60 0,0
22.06.2018 05:00:00 16,4 12,9 15,3 22,0 16,7 7 4 19 10 NNW 1018,8 60 0,0
22.06.2018 04:00:00 17,8 13,1 16,7 22,2 16,7 8 5 22 12 NNW 1018,3 60 0,0
22.06.2018 03:00:00 17,9 14,4 16,5 22,5 16,7 5 3 15 8 W 1018,1 60 0,0
22.06.2018 02:00:00 18,1 14,6 15,6 22,8 16,7 8 4 13 7 W 1018,2 60 0,0
22.06.2018 01:00:00 19,0 14,7 16,8 23,1 16,7 5 3 19 10 NW 1018,1 60 0,0
22.06.2018 00:00:00 19,9 14,7 17,5 23,5 16,7 7 4 19 11 WNW 1017,8 60 0,0
21.06.2018 23:00:00 21,1 14,0 17,1 23,8 16,7 8 4 19 10 NNW 1017,4 60 0,0
21.06.2018 22:00:00 22,8 13,0 19,2 24,1 16,7 6 4 29 15 WNW 1016,3 45 0,0
21.06.2018 21:00:00 24,4 14,2 24,2 24,4 16,7 3 2 35 19 W 1015,6 60 0,0
21.06.2018 20:00:00 25,9 13,1 26,1 24,6 16,7 18 10 39 21 NW 1014,9 30 0,0
21.06.2018 19:00:00 27,1 13,1 28,9 24,7 16,6 16 8 29 16 NNW 1014,4 60 0,0
21.06.2018 18:00:00 28,5 13,6 30,5 24,6 16,6 15 8 27 14 NNW 1014,3 48 0,0
21.06.2018 17:00:00 29,2 16,4 28,4 24,4 16,7 13 7 28 15 W 1014,2 59 0,0
21.06.2018 16:00:00 30,0 14,5 30,6 24,0 16,6 4 2 21 11 N 1014,2 42 0,0
21.06.2018 15:00:00 28,8 15,3 31,1 23,5 16,6 10 5 26 14 NW 1014,8 60 0,0
21.06.2018 14:00:00 29,1 16,0 35,3 22,9 16,6 12 6 24 13 WNW 1015,1 45 0,0
21.06.2018 13:00:00 28,7 15,9 30,2 22,3 16,6 9 5 19 10 NNW 1015,5 18 0,0
21.06.2018 12:00:00 27,9 18,0 30,6 21,8 16,6 7 4 18 10 SW 1016,2 15 0,0
21.06.2018 11:00:00 26,8 16,7 31,6 21,5 16,6 8 4 18 10 WSW 1016,5 58 0,0
21.06.2018 10:00:00 25,0 16,4 26,9 21,3 16,6 4 2 9 5 NE 1016,9 41 0,0
21.06.2018 09:00:00 23,4 16,2 22,6 21,2 16,6 3 1 11 6 NE 1017,7 19 0,0
21.06.2018 08:00:00 20,6 16,0 19,3 21,3 16,6 6 4 11 6 ENE 1018,5 48 0,0
21.06.2018 07:00:00 18,1 16,1 15,1 21,5 16,6 5 3 11 6 NNE 1018,7 28 0,0
21.06.2018 06:00:00 16,3 15,5 14,8 21,8 16,6 9 5 14 8 NE 1018,8 31 0,0
21.06.2018 05:00:00 16,4 15,6 14,9 22,0 16,6 8 5 14 7 NNE 1018,7 30 0,0
21.06.2018 04:00:00 16,6 16,0 15,2 22,3 16,6 7 4 12 7 NE 1018,9 28 0,0
21.06.2018 03:00:00 16,9 16,3 15,8 22,6 16,6 10 5 11 6 ENE 1018,9 38 0,0
21.06.2018 02:00:00 18,2 16,7 16,6 22,9 16,6 7 4 14 8 NNE 1018,9 32 0,0
21.06.2018 01:00:00 18,3 17,0 16,9 23,3 16,6 10 6 14 8 NE 1018,9 39 0,0
21.06.2018 00:00:00 19,4 16,6 17,2 23,6 16,6 8 4 13 7 NNE 1019,1 53 0,0
20.06.2018 23:00:00 19,7 17,8 18,0 23,9 16,6 10 6 14 7 NE 1018,9 43 0,0
20.06.2018 22:00:00 21,4 17,8 19,1 24,2 16,6 4 2 7 4 NE 1017,7 38 0,0
20.06.2018 21:00:00 26,0 16,8 26,1 24,4 16,5 6 3 14 8 W 1016,5 60 0,0
20.06.2018 20:00:00 27,4 16,7 26,9 24,4 16,6 11 6 19 10 SW 1016,3 19 0,0
20.06.2018 19:00:00 28,1 16,7 33,1 24,3 16,6 13 7 24 13 SSW 1016,2 48 0,0
20.06.2018 18:00:00 28,6 16,5 33,9 24,0 16,6 12 6 26 14 SSW 1016,2 44 0,0
20.06.2018 17:00:00 29,1 14,1 34,6 23,7 16,6 16 9 31 17 SW 1016,7 18 0,0
20.06.2018 16:00:00 29,2 14,2 34,1 23,2 16,6 19 10 33 18 SW 1017,0 20 0,0
20.06.2018 15:00:00 29,1 16,6 34,6 22,6 16,5 9 5 29 16 WSW 1017,4 60 0,0
20.06.2018 14:00:00 28,6 17,5 33,2 21,9 16,5 10 5 19 10 W 1017,8 56 0,0
20.06.2018 13:00:00 27,5 17,1 33,6 21,4 16,5 6 3 17 9 W 1018,5 48 0,0
20.06.2018 12:00:00 26,3 15,4 32,8 20,8 16,5 8 4 15 8 W 1018,9 60 0,0
20.06.2018 11:00:00 25,4 15,4 30,5 20,4 16,5 4 2 10 5 SE 1019,2 60 0,0
20.06.2018 10:00:00 24,0 14,4 28,4 20,1 16,5 3 2 8 5 SE 1019,8 56 0,0
20.06.2018 09:00:00 22,1 14,5 24,3 20,1 16,5 3 2 8 5 S 1020,3 60 0,0
20.06.2018 08:00:00 19,6 14,6 18,2 20,1 16,5 5 3 12 6 E 1020,8 48 0,0
20.06.2018 07:00:00 16,5 15,0 13,0 20,3 16,5 7 4 9 5 ENE 1021,3 36 0,0
20.06.2018 06:00:00 14,5 13,9 12,5 20,6 16,5 5 3 9 5 NE 1021,6 36 0,0
20.06.2018 05:00:00 14,7 14,1 12,9 20,8 16,5 3 2 9 5 ENE 1021,4 42 0,0
20.06.2018 04:00:00 14,7 14,1 13,3 21,1 16,5 7 4 11 6 E 1021,2 49 0,0
20.06.2018 03:00:00 15,1 14,1 13,5 21,4 16,5 8 5 13 7 ENE 1021,3 50 0,0
20.06.2018 02:00:00 15,7 13,9 14,1 21,7 16,5 10 5 13 7 ENE 1021,2 60 0,0
20.06.2018 01:00:00 16,6 14,6 14,6 22,0 16,5 8 5 12 7 NE 1021,0 59 0,0
20.06.2018 00:00:00 19,6 13,1 16,4 22,3 16,5 5 3 17 9 E 1020,4 60 0,0
19.06.2018 23:00:00 20,7 12,7 16,2 22,6 16,5 9 5 13 7 N 1019,9 60 0,0
19.06.2018 22:00:00 21,4 12,5 17,1 23,0 16,5 3 2 19 11 N 1019,4 24 0,0
19.06.2018 21:00:00 24,4 11,4 24,1 23,2 16,5 11 6 29 16 N 1018,7 60 0,0
19.06.2018 20:00:00 26,3 12,0 25,8 23,3 16,5 14 7 35 19 N 1018,6 60 0,0
19.06.2018 19:00:00 27,2 11,6 32,4 23,2 16,5 16 9 30 16 N 1018,6 60 0,0
19.06.2018 18:00:00 27,5 11,5 33,7 23,0 16,5 19 10 29 16 NNE 1018,9 58 0,0
19.06.2018 17:00:00 27,9 11,9 34,5 22,5 16,5 14 7 28 15 NE 1019,2 52 0,0
19.06.2018 16:00:00 27,5 11,5 34,0 21,9 16,5 13 7 28 15 N 1019,6 49 0,0
19.06.2018 15:00:00 26,8 14,2 30,8 21,4 16,5 11 6 27 14 NE 1020,1 56 0,0
19.06.2018 14:00:00 25,8 14,3 29,6 20,8 16,4 14 8 25 14 NW 1020,7 60 0,0
19.06.2018 13:00:00 24,6 14,7 26,3 20,4 16,5 14 7 28 15 NW 1021,2 20 0,2
19.06.2018 12:00:00 24,3 14,7 28,8 19,8 16,4 8 4 21 11 N 1021,7 19 0,0
19.06.2018 11:00:00 23,1 14,6 28,7 19,5 16,4 6 3 14 8 SSW 1022,2 60 0,0
19.06.2018 10:00:00 21,9 14,0 23,2 19,4 16,4 3 2 13 7 ENE 1023,0 50 0,0
19.06.2018 09:00:00 20,3 13,5 17,4 19,3 16,4 4 2 8 4 ESE 1023,4 20 0,0
19.06.2018 08:00:00 18,5 14,2 13,7 19,5 16,4 0 0 5 3 N 1023,7 19 0,0
19.06.2018 07:00:00 14,7 13,7 11,2 19,7 16,5 4 2 11 6 NE 1024,3 19 0,0
19.06.2018 06:00:00 12,3 12,3 11,1 20,0 16,4 0 0 10 5 N 1024,8 19 0,0
19.06.2018 05:00:00 12,4 12,4 11,3 20,3 16,4 7 4 10 5 ENE 1024,3 20 0,0
19.06.2018 04:00:00 12,9 12,6 11,7 20,6 16,4 4 2 9 5 NE 1024,1 60 0,0
19.06.2018 03:00:00 13,3 12,5 12,1 20,9 16,5 5 3 8 5 ENE 1023,8 60 0,0
19.06.2018 02:00:00 14,2 13,2 12,8 21,3 16,4 3 2 10 5 W 1023,5 58 0,0
19.06.2018 01:00:00 16,1 13,2 13,5 21,6 16,4 5 3 9 5 NNW 1022,8 60 0,0
19.06.2018 00:00:00 15,7 13,2 13,9 21,9 16,4 6 3 8 4 SW 1022,7 60 0,0
18.06.2018 23:00:00 17,1 13,4 15,0 22,3 16,4 5 3 17 9 SW 1022,4 3,9 0,0
18.06.2018 22:00:00 19,7 12,5 16,9 22,5 16,4 8 5 23 13 NW 1021,4 18 0,0
18.06.2018 21:00:00 21,7 12,8 19,0 22,7 16,4 8 4 24 13 NNW 1020,4 54 0,0
18.06.2018 20:00:00 24,0 12,9 23,5 22,8 16,4 16 9 27 15 NW 1019,8 60 0,0
18.06.2018 19:00:00 25,1 12,3 25,5 22,8 16,4 14 7 26 14 NNW 1019,3 20 0,0
18.06.2018 18:00:00 24,3 12,6 25,5 22,7 16,4 11 6 31 17 N 1019,5 59 0,0
18.06.2018 17:00:00 25,2 12,8 26,6 22,5 16,4 12 7 31 17 N 1019,5 60 0,0
18.06.2018 16:00:00 24,5 13,1 28,1 22,1 16,4 7 4 26 14 N 1019,7 58 0,0
18.06.2018 15:00:00 24,7 11,3 27,3 21,6 16,4 14 7 25 13 N 1019,9 60 0,0
18.06.2018 14:00:00 23,2 11,9 28,8 21,0 16,4 10 5 34 18 N 1020,4 59 0,0
18.06.2018 13:00:00 23,7 13,3 33,7 20,4 16,4 17 9 32 18 NNW 1020,6 18 0,0
18.06.2018 12:00:00 22,4 12,9 26,8 20,0 16,4 16 9 33 18 NW 1020,7 38 0,0
18.06.2018 11:00:00 21,2 13,1 24,8 19,8 16,4 14 8 27 15 NW 1020,8 53 0,0
18.06.2018 10:00:00 21,6 12,7 25,6 19,7 16,3 5 3 21 12 NE 1020,8 59 0,0
18.06.2018 09:00:00 20,1 12,8 19,6 19,7 16,4 8 4 16 9 NE 1021,1 37 0,0
18.06.2018 08:00:00 18,3 12,1 15,1 19,8 16,4 5 3 16 9 N 1021,4 60 0,0
18.06.2018 07:00:00 16,4 12,2 14,7 20,0 16,4 9 5 16 9 WNW 1021,6 58 0,0
18.06.2018 06:00:00 16,0 12,2 15,1 20,1 16,4 8 4 16 8 WNW 1021,5 14 0,0
18.06.2018 05:00:00 16,1 13,4 15,3 20,3 16,3 3 2 8 4 WNW 1021,1 60 0,0
18.06.2018 04:00:00 16,0 13,1 15,7 20,5 16,4 3 2 7 4 SW 1021,1 60 0,0
18.06.2018 03:00:00 16,5 13,0 15,8 20,7 16,3 2 1 8 4 W 1021,2 60 0,0
18.06.2018 02:00:00 16,6 12,9 15,9 20,8 16,4 4 2 8 4 W 1021,2 60 0,0
18.06.2018 01:00:00 16,2 13,7 15,6 21,1 16,4 6 3 10 6 SW 1021,5 60 0,0
18.06.2018 00:00:00 16,6 13,1 16,0 21,3 16,3 8 5 12 7 SW 1021,2 60 0,0
17.06.2018 23:00:00 17,2 12,9 16,8 21,5 16,3 8 5 13 7 SW 1021,0 60 0,0
17.06.2018 22:00:00 18,1 12,5 17,2 21,8 16,3 7 4 21 11 WNW 1020,6 19 0,0
17.06.2018 21:00:00 18,5 12,9 18,1 22,0 16,3 7 4 25 13 WSW 1019,6 60 0,0
17.06.2018 20:00:00 19,2 12,7 18,8 22,3 16,4 15 8 36 19 NW 1018,9 60 0,0
17.06.2018 19:00:00 19,7 12,9 20,6 22,4 16,3 19 11 40 21 NW 1018,5 59 0,0
17.06.2018 18:00:00 20,0 13,2 20,4 22,5 16,3 22 12 46 25 NW 1018,1 40 0,0
17.06.2018 17:00:00 21,8 13,4 24,0 22,4 16,3 23 12 43 23 WNW 1017,4 58 0,0
17.06.2018 16:00:00 23,5 13,7 29,4 22,0 16,3 18 10 38 20 NW 1016,6 53 0,0
17.06.2018 15:00:00 24,2 13,4 30,3 21,5 16,4 15 8 28 15 WNW 1016,3 60 0,0
17.06.2018 14:00:00 24,3 14,7 32,8 20,8 16,3 13 7 29 16 NW 1016,3 53 0,0
17.06.2018 13:00:00 23,6 14,0 25,3 20,4 16,3 8 5 22 12 WNW 1016,8 60 0,0
17.06.2018 12:00:00 23,6 14,3 27,9 19,9 16,3 4 2 21 11 N 1017,0 45 0,0
17.06.2018 11:00:00 22,0 15,4 28,7 19,6 16,3 10 6 22 12 WNW 1017,6 57 0,0
17.06.2018 10:00:00 20,8 15,3 21,6 19,4 16,3 8 4 14 8 W 1017,9 57 0,0
17.06.2018 09:00:00 18,3 14,8 18,2 19,3 16,3 3 1 7 4 SSW 1018,4 50 0,0
17.06.2018 08:00:00 17,1 13,8 14,5 19,5 16,3 2 1 8 5 E 1018,1 55 0,0
17.06.2018 07:00:00 14,3 14,3 13,3 19,6 16,3 5 3 11 6 ENE 1018,3 41 0,0
17.06.2018 06:00:00 13,3 13,3 11,8 19,9 16,3 4 2 9 5 NE 1018,2 20 0,0
17.06.2018 05:00:00 13,2 13,0 11,9 20,1 16,3 6 3 11 6 NE 1017,9 41 0,0
17.06.2018 04:00:00 13,5 13,0 12,3 20,4 16,3 6 3 9 5 NE 1017,6 44 0,0
17.06.2018 03:00:00 14,4 13,8 13,0 20,7 16,3 2 1 9 5 N 1017,4 11 0,0
17.06.2018 02:00:00 15,3 13,8 13,7 21,0 16,3 3 2 9 5 NNW 1016,9 45 0,0
17.06.2018 01:00:00 16,5 13,8 14,7 21,3 16,3 3 2 12 6 NNE 1016,7 54 0,0
17.06.2018 00:00:00 17,8 13,9 15,1 21,5 16,3 8 4 12 7 NW 1016,3 49 0,0
16.06.2018 23:00:00 19,0 14,5 16,3 21,8 16,3 5 3 10 5 NNW 1015,9 57 0,0
16.06.2018 22:00:00 20,1 14,5 17,2 22,1 16,3 2 1 16 8 NNW 1015,1 14 0,0
16.06.2018 21:00:00 22,3 14,4 21,3 22,2 16,3 10 5 26 14 NNW 1014,0 60 0,0
16.06.2018 20:00:00 23,8 13,9 22,5 22,3 16,3 11 6 24 13 WNW 1013,2 56 0,0
16.06.2018 19:00:00 25,0 14,2 25,2 22,2 16,3 13 7 28 15 W 1012,8 52 0,0
16.06.2018 18:00:00 23,9 14,0 25,3 22,0 16,3 15 8 27 14 WNW 1013,1 39 0,0
16.06.2018 17:00:00 25,5 13,7 31,8 21,5 16,3 13 7 23 12 WNW 1012,8 35 0,0
16.06.2018 16:00:00 25,5 11,6 32,5 21,0 16,3 9 5 23 13 NNW 1013,0 42 0,0
16.06.2018 15:00:00 24,8 12,4 31,0 20,5 16,3 12 7 25 13 NW 1013,6 35 0,0

tt = temperature
td = dewpoint
tt 5cm = temperature 5cm
tt -20cm = temperature -20cm
tt -100cm = temperature -100cm
ff = wind speed
fx = gusts
dd = wind direction
ppp = reduced air pressure
vv = visibility
rr = precipitation

Next stations